This is the latest recevied weather packets stored in our database for station/object ON5MM-5. If no packets are shown the sender has not sent any weather packets the latest 1 day(s).
| Time | Temp. | Humidity | Pressure | Rain* | Wind** | Luminosity | Snow |
|---|---|---|---|---|---|---|---|
| 1836274676 | 18.33° C | 67% | 1019.1 hPa | 0 mm | 3.58 m/s, ° | - | - |
| 1836274526 | 18.89° C | 66% | 1018.9 hPa | 0 mm | 3.13 m/s, ° | - | - |
| 1836274376 | 17.78° C | 69% | 1019.3 hPa | 0 mm | 3.58 m/s, ° | - | - |
| 1836274226 | 18.33° C | 66% | 1019 hPa | 0 mm | 3.13 m/s, ° | - | - |
| 1836274076 | 17.22° C | 70% | 1019.3 hPa | 0 mm | 3.13 m/s, ° | - | - |
| 1778027403 | 8.89° C | 92% | 1009.2 hPa | 1.02 mm | 0 m/s | - | - |
| 1778027102 | 8.89° C | 92% | 1009.2 hPa | 1.27 mm | 0 m/s | - | - |
| 1778026802 | 8.89° C | 92% | 1009.3 hPa | 1.02 mm | 0 m/s | - | - |
| 1778026502 | 8.89° C | 92% | 1009.3 hPa | 1.27 mm | 0 m/s | - | - |
| 1778026203 | 8.89° C | 92% | 1009.4 hPa | 1.27 mm | 0 m/s | - | - |
| 1778025902 | 8.89° C | 92% | 1009.5 hPa | 1.78 mm | 0 m/s | - | - |
| 1778025602 | 8.89° C | 92% | 1009.5 hPa | 1.52 mm | 0 m/s | - | - |
| 1778025302 | 8.89° C | 92% | 1009.6 hPa | 1.52 mm | 0 m/s | - | - |
| 1778025002 | 8.89° C | 92% | 1009.6 hPa | 1.78 mm | 0 m/s | - | - |
| 1778024702 | 8.89° C | 92% | 1009.6 hPa | 1.78 mm | 0 m/s | - | - |
| 1778024403 | 8.89° C | 92% | 1009.7 hPa | 2.54 mm | 0 m/s | - | - |
| 1778024102 | 8.89° C | 92% | 1009.7 hPa | 2.54 mm | 0 m/s | - | - |
| 1778023802 | 8.89° C | 92% | 1009.7 hPa | 2.54 mm | 0 m/s | - | - |
| 1778023502 | 8.89° C | 91% | 1009.7 hPa | 2.54 mm | 0 m/s | - | - |
| 1778023202 | 8.89° C | 91% | 1009.7 hPa | 2.29 mm | 0 m/s | - | - |
| 1778022902 | 8.89° C | 91% | 1009.7 hPa | 2.79 mm | 0 m/s | - | - |
| 1778022602 | 8.89° C | 91% | 1009.7 hPa | 2.54 mm | 0 m/s | - | - |
| 1778022303 | 8.89° C | 91% | 1009.8 hPa | 2.29 mm | 0 m/s | - | - |
| 1778022003 | 8.89° C | 91% | 1009.8 hPa | 2.29 mm | 0 m/s | - | - |
| 1778021702 | 8.89° C | 91% | 1009.8 hPa | 2.29 mm | 0 m/s | - | - |
* Rain latest hour (hover to see other rain measurements)
** Current wind speed in m/s (hover to see current wind gust speed)